Flag for El Salvador Weather past 2 weeks in San Salvador, El Salvador

Now
77 °F

Scattered clouds.


Feels Like: 78 °F
Forecast: 67 / 76 °F
Wind: 7 mph from South

Location: San Salvador / Ilopango

Current Time: Oct 23, 2014 at 11:21:18 AM

Latest Report: Oct 23, 2014 at 10:50 AM


Visibility: N/A

Pressure: 29.98 "Hg

Humidity: 83%

Dew point: 72 °F

Location of San SalvadorLocation

Historic Weather in San Salvador — Graph

°F

San Salvador temperature yesterday

Maximum temperature yesterday: 81 °F (at 12:50 PM)
Minimum temperature yesterday: 70 °F (at 10:50 PM)
Average temperature yesterday: 74 °F

Past Weeks' High & Low Weather Summary

 TemperatureHumidityPressure
High84 °F (Oct 8, 10:50 AM)100% (Oct 9, 9:50 PM)30.07 "Hg (Oct 9, 9:50 PM)
Low66 °F (Oct 10, 5:50 AM)29% (Oct 9, 6:50 AM)29.83 "Hg (Oct 10, 3:50 PM)
Average75 °F87%29.94 "Hg
* Reported Oct 8 9:50 AM — Oct 23 9:50 AM, San Salvador, Weather by CustomWeather, © 2014

Note: Actual official high and low records may vary slightly from our data, if they occured in-between our weather recording intervals... More about our weather records

Advertising

San Salvador weather history for previous 24 hours

 ConditionsComfort  
Time TempWeatherWind HumidityBarometerVisibility
9:50 AM
Oct 23
75 °FPassing clouds.5 mph89%29.98 "Hg10 mi
8:50 AM75 °FSunny.2 mph83%29.98 "Hg10 mi
7:50 AM72 °FSunny.No wind94%29.98 "Hg10 mi
6:50 AM70 °FSunny.2 mph94%29.95 "Hg10 mi
5:50 AM68 °FSunny.3 mph100%29.92 "Hg10 mi
11:50 PM
Oct 22
70 °FClear.5 mph94%29.95 "Hg10 mi
10:50 PM70 °FClear.3 mph94%29.95 "Hg10 mi
9:50 PM72 °FClear.5 mph88%29.95 "Hg10 mi
8:50 PM72 °FClear.5 mph88%29.95 "Hg10 mi
7:50 PM72 °FClear.2 mph88%29.92 "Hg10 mi
6:50 PM72 °FClear.2 mph88%29.89 "Hg10 mi
5:50 PM73 °FPassing clouds.7 mph89%29.89 "HgN/A
4:50 PM75 °FPassing clouds.5 mph89%29.89 "HgN/A
3:50 PM77 °FPassing clouds.2 mph83%29.89 "HgN/A
2:50 PM79 °FScattered clouds.5 mph79%29.89 "HgN/A
1:50 PM79 °FScattered clouds.7 mph79%29.89 "HgN/A
12:50 PM81 °FScattered clouds.7 mph79%29.92 "HgN/A
11:50 AM79 °FScattered clouds.N/A79%29.95 "HgN/A
Weather by CustomWeather, © 2014

See weather overviewHow to use our weather pages